Location: ČR
(50.0000°N, 15.0000°E)
Time: 11:25:45
(UTC+02:00)

A-11 Canister half - Pass Details

Date: 20 March 2026
Orbit: 1514 x 1685 km, 47.2° (Epoch: 16 April)

Event Time Altitude Azimuth Distance (km) Brightness Sun altitude
Rises 20:19:28 0° 288° (WNW) 4,939 13.2 -20.4°
Reaches altitude 10° 20:23:50 10° 272° (W) 3,952 12.1 -21.1°
Maximum altitude 20:30:15 19° 232° (SW) 3,258 10.9 -22.0°
Drops below altitude 10° 20:36:39 10° 192° (SSW) 3,915 10.9 -22.9°
Enters shadow 20:40:07 - 179° (S) 4,665 11.2 -23.3°
Sets 20:40:59 0° 176° (S) 4,878 - -23.5°
